User: anonymous   Login
Location: Nairn
(57.5833°N, 3.8667°W)
Time: 23:55:17
(UTC+00:00)
Language:

H-2A R/B - Orbit

View from above orbital plane
View from above orbital plane
View from above satellite
View from above satellite

Ground track
Ground track

The orbit data is extracted from the following two-line orbital elements,

1 38341U 12025E   20293.43980628  .00000260  00000-0  37961-4 0  9993
2 38341  98.5149  96.6016 0055258 192.4797 167.5051 14.84087433455831
Epoch (UTC): 19 October 2020 10:33:19
Eccentricity: 0.0055258
inclination: 98.5149°
perigee height: 578 km
apogee height: 655 km
right ascension of ascending node: 96.6016°
argument of perigee: 192.4797°
revolutions per day: 14.84087433
mean anomaly at epoch: 167.5051°
orbit number at epoch: 45583

The dashed part of the orbit path shows where the satellite is in the earth's shadow,  

DLR